2011 AF3

Japanese version
Home page
Updated on August 12, 2011

---------------------------------------------------------------------

* Profile

Discovery Date January 4, 2011
Magnitude 18.8 mag
Discoverer Catalina Sky Survey

* Orbital Elements

The following orbital elements are taken from MPO190759

Epoch 2010 Dec. 30.0 TT = JDT 2455560.5                 MPC
M 357.51516              (2000.0)            P               Q
n   0.05324601     Peri.  109.35221     -0.85996587     +0.49767233
a   6.9975288      Node   100.63682     -0.50069910     -0.77986072
e   0.9444501      Incl.    6.60532     -0.09878826     -0.37965710
P  18.5            H   25.1           G   0.15
From 13 observations 2011 Jan. 4-4.  E-assumed.

* Magnitudes Graph

        H = 25.1  G = 0.15

---------------------------------------------------------------------

The orbital elements are published at the MPC Ephemerides and Orbital Elements.
The magnitudes graphs are made with Comet for Windows.

---------------------------------------------------------------------

Copyright(C) Seiichi Yoshida (comet@aerith.net). All rights reserved.